Theta_e
319 318 317 316 315 314 317 318 319 322 324 324 323 323 322 321 318 315 316 317 319 324 328 326 330 334 334 332 333 334 334 335 334 335 335 336 337 335 337 338 338 338 339 341 343 344 346 346 347 349 348 348 351 356 354 354 354 355 356 356 356 352 356 355 353 353 353 354 356 355 357 357 355 355
320 320 318 316 314 316 319 317 319 322 324 322 323 324 323 323 320 319 316 317 322 323 327 328 326 330 332 331 330 332 333 332 332 334 334 335 335 335 338 338 338 337 336 337 339 340 343 344 345 346 348 348 348 351 353 354 354 356 355 356 353 355 356 355 354 352 352 353 354 355 356 356 355 355
321 321 318 316 314 319 320 318 318 321 322 321 323 323 324 324 325 322 321 317 322 324 323 326 328 326 328 328 328 331 331 331 330 332 333 335 334 334 335 338 338 337 336 336 337 339 341 344 345 346 347 348 348 348 350 354 353 354 354 353 354 354 354 353 351 351 352 353 354 355 355 354 355 355
322 322 319 317 316 319 320 320 320 320 323 323 321 323 325 325 326 325 322 320 320 324 324 325 326 326 327 327 327 327 329 330 331 331 332 334 333 334 334 335 339 336 336 335 336 337 339 342 345 344 346 346 347 348 350 352 353 354 354 353 351 351 351 348 347 349 352 353 353 354 354 354 354 354
322 323 321 318 317 319 321 319 319 320 321 322 321 322 323 322 324 323 322 319 319 323 325 324 324 325 327 325 328 326 327 327 327 331 331 333 332 333 334 334 335 337 337 336 336 337 338 340 343 343 343 343 344 347 346 346 349 351 352 354 351 350 348 346 348 350 350 353 354 354 354 353 353 353
322 323 322 319 316 318 320 321 320 320 321 322 320 319 319 318 320 322 319 317 316 316 319 318 320 321 325 323 328 327 324 325 328 329 327 330 332 334 335 335 335 337 337 336 337 338 339 339 341 340 340 340 341 343 346 348 348 349 350 350 349 344 345 345 346 348 351 352 353 353 354 352 352 352
323 322 322 319 318 318 319 319 322 321 320 321 320 319 319 318 318 320 320 318 316 316 316 319 318 320 322 322 322 326 325 327 327 327 326 329 332 334 335 335 336 337 337 337 337 338 339 339 340 338 338 338 338 340 343 341 341 344 344 342 341 341 342 342 345 347 350 350 352 352 353 351 352 351
323 323 321 319 318 317 318 320 319 320 319 319 319 320 320 318 318 319 320 321 319 317 315 318 318 320 320 321 323 325 325 326 325 327 328 330 331 333 333 335 337 337 338 338 339 339 339 340 339 337 336 336 336 338 338 338 338 337 338 339 339 340 340 342 343 342 344 347 348 350 351 350 350 349
322 322 321 319 319 317 316 319 318 318 320 318 320 320 320 319 318 320 319 320 319 317 316 316 319 320 321 321 323 324 322 324 326 327 328 328 330 330 333 333 336 337 339 340 339 339 340 341 339 337 336 335 335 336 336 337 336 336 335 336 336 337 338 339 338 339 340 342 344 345 346 346 345 345
322 321 321 319 317 315 315 318 319 320 322 321 321 320 321 320 319 319 320 319 319 317 316 317 315 320 318 318 320 323 324 323 321 323 325 328 329 330 329 330 330 336 337 339 341 339 340 339 336 336 335 334 334 334 334 335 337 337 337 336 335 335 336 337 336 337 337 339 340 341 341 342 342 343
322 321 320 318 315 314 316 316 319 320 323 322 321 322 321 320 319 318 318 317 318 318 316 316 316 316 318 319 315 321 323 323 323 322 322 325 327 328 327 329 331 333 334 338 341 340 341 341 342 334 331 332 334 334 334 335 336 338 338 335 334 335 336 336 335 335 336 337 337 337 337 337 339 341
323 323 321 316 314 315 317 318 319 320 321 323 323 323 323 321 320 318 316 316 317 317 315 313 314 315 316 317 319 320 320 319 320 322 321 321 322 324 328 330 330 332 334 334 338 341 342 345 343 337 337 336 337 337 335 337 337 339 341 338 335 335 336 335 335 334 334 335 336 336 335 334 334 337
323 323 321 316 314 318 316 316 317 319 321 321 321 322 323 323 319 319 317 316 316 316 314 314 316 315 315 315 316 316 316 316 316 320 322 322 323 323 323 328 331 332 331 334 336 338 341 343 345 343 341 342 339 338 335 335 336 338 340 340 336 335 335 335 334 333 333 334 334 334 334 333 332 334
323 322 321 320 314 316 316 315 315 317 318 319 319 318 320 320 320 318 316 316 317 316 314 313 314 313 313 314 316 315 317 319 319 319 320 319 320 321 321 324 330 332 331 331 333 338 341 340 341 343 339 341 340 338 336 334 333 334 335 336 335 334 334 334 334 333 333 333 333 333 332 333 333 332
323 321 322 321 316 316 315 318 315 316 316 317 317 317 317 317 319 317 315 316 318 316 314 315 314 314 314 316 317 316 317 318 317 318 319 318 318 316 315 317 325 333 331 330 330 334 339 341 339 341 341 340 341 337 334 329 331 331 334 335 334 334 333 333 333 333 333 333 332 332 332 332 332 330
322 322 322 319 317 316 317 319 319 318 316 317 316 317 316 316 316 319 320 319 318 316 314 314 314 314 314 316 318 316 318 318 318 318 319 318 317 316 316 319 321 327 332 329 328 329 335 339 339 339 341 342 340 338 331 329 330 330 332 334 334 333 333 333 333 333 333 332 332 331 331 331 331 331
323 323 322 320 316 315 316 319 319 320 320 318 317 317 317 316 316 316 316 318 320 318 316 316 314 314 315 315 316 317 318 320 317 317 316 318 317 317 317 320 322 327 331 329 326 326 333 335 335 336 341 342 340 339 332 329 330 329 329 332 333 332 332 332 332 332 332 331 330 330 329 330 330 330
324 324 322 321 318 317 319 320 318 319 320 320 320 320 319 318 317 317 316 316 317 319 318 316 313 314 316 315 316 319 320 317 317 316 315 317 316 317 317 321 325 329 329 326 324 327 330 333 333 334 337 341 342 340 329 326 329 329 327 328 330 331 331 331 331 331 331 330 330 328 328 328 329 329
326 325 321 322 320 319 319 318 316 319 319 320 319 319 318 319 318 319 317 315 314 317 316 315 314 315 315 317 317 319 320 319 319 319 319 319 319 319 322 325 326 326 328 327 325 323 328 333 331 333 336 340 340 338 329 326 329 328 327 326 328 329 330 330 330 330 330 330 329 329 328 327 326 326
328 327 324 324 324 322 320 317 315 317 320 320 320 318 317 318 317 317 317 319 318 318 318 318 317 316 315 320 321 322 320 319 320 321 321 322 320 318 319 318 320 322 325 326 323 323 326 330 329 331 336 339 339 337 338 329 330 329 327 325 324 327 327 328 329 329 329 329 329 329 328 327 326 325
327 326 326 326 324 324 324 319 316 314 316 320 321 319 317 317 317 316 317 321 321 321 325 325 324 323 322 323 323 322 325 326 320 319 317 316 317 316 316 318 319 320 324 324 324 324 322 326 329 329 333 337 337 336 336 337 330 327 326 325 324 323 326 326 327 327 328 328 328 328 327 327 325 325
326 327 323 323 325 323 325 321 319 318 318 320 320 319 317 317 316 316 317 317 317 325 327 326 323 322 321 324 324 322 323 322 318 319 314 315 316 316 317 316 318 320 324 323 325 323 321 324 328 326 331 334 338 336 336 336 334 329 327 324 324 322 322 325 325 325 326 327 327 327 326 325 325 332
325 326 326 325 324 324 325 323 323 322 323 320 320 320 319 316 316 317 319 320 319 321 320 320 320 319 318 321 321 321 317 317 318 321 319 318 316 315 316 318 317 316 319 323 327 320 320 321 323 325 326 324 331 337 338 335 335 335 336 335 335 325 322 323 324 324 324 325 326 326 325 324 324 336
325 325 326 327 326 324 323 321 320 321 321 320 320 320 319 317 317 320 321 323 322 322 321 321 320 319 321 321 321 321 319 319 320 320 320 319 319 318 316 317 316 316 317 322 326 322 321 322 321 326 326 323 322 329 335 334 334 333 334 334 333 332 329 326 322 321 322 323 323 323 322 322 324 338
322 323 324 324 328 322 321 319 317 315 316 319 320 321 321 321 325 322 322 323 321 322 322 321 319 319 320 321 321 318 319 317 318 318 319 319 321 320 319 317 318 317 319 324 327 325 321 322 321 323 325 326 327 327 331 333 333 333 333 333 332 333 335 335 330 331 318 320 319 319 319 320 321 333
323 324 325 325 328 321 319 318 315 313 314 317 322 322 319 318 319 322 323 323 322 321 320 318 317 317 317 317 318 317 317 316 317 317 318 320 322 323 323 321 318 317 319 324 326 326 321 321 322 321 322 323 326 328 327 329 330 334 333 332 333 333 334 333 335 332 332 330 327 323 324 317 320 320
324 326 326 326 325 319 316 314 314 313 313 319 322 317 317 317 318 322 322 323 323 320 319 318 317 316 316 317 316 316 315 315 319 318 320 322 322 322 323 325 324 323 322 324 327 327 325 321 325 322 320 323 324 327 327 326 328 332 333 330 331 332 334 332 330 331 332 329 327 318 316 318 319 320
326 326 327 326 321 316 310 311 313 315 319 322 315 315 316 318 321 323 323 322 321 320 319 318 317 316 316 316 316 316 317 316 319 320 321 321 321 320 320 323 325 325 325 325 326 326 325 323 322 324 324 323 324 324 324 329 331 329 329 330 330 330 331 332 329 329 330 331 330 330 329 326 326 329
327 325 320 318 316 315 312 312 313 315 318 314 313 313 316 321 322 322 322 321 322 319 318 318 316 316 317 317 317 320 319 321 321 321 320 320 321 321 320 321 322 325 324 325 325 326 325 323 322 324 325 325 325 327 328 327 328 327 328 329 330 329 330 330 329 328 327 328 329 330 330 329 328 332
328 323 321 319 318 319 319 325 328 329 329 325 322 320 321 323 323 323 323 322 320 319 318 318 317 317 317 318 320 321 321 320 318 318 318 317 318 318 316 315 317 322 324 323 321 323 323 323 322 324 324 326 326 328 329 327 328 327 328 326 330 331 331 329 328 328 327 326 326 327 327 330 330 331
332 332 331 330 327 326 328 330 330 329 330 329 329 330 329 328 327 326 325 324 322 322 320 319 319 319 319 321 320 319 318 317 318 320 317 316 316 316 316 315 315 316 317 321 321 323 323 324 325 325 323 324 327 330 331 332 325 325 326 326 327 325 328 329 328 328 328 328 328 327 327 328 328 329
334 336 334 334 335 336 334 332 332 332 332 330 331 330 328 326 326 325 324 324 325 324 322 321 321 320 321 318 316 316 316 316 317 319 317 316 315 315 317 315 315 315 316 318 319 322 320 323 323 325 327 326 325 327 331 329 329 325 325 326 327 326 327 327 329 328 329 328 325 323 323 325 324 325
331 330 327 328 328 328 328 328 328 327 325 324 326 329 329 328 326 326 325 324 324 324 324 322 321 319 319 319 318 317 315 317 316 319 318 318 316 317 317 315 315 314 313 314 317 319 322 322 325 326 327 328 329 330 328 328 328 327 325 325 325 324 325 326 327 328 330 327 325 324 322 323 324 324
325 327 325 324 323 324 323 323 323 322 322 322 323 324 326 325 325 323 323 323 323 324 323 322 321 320 319 318 318 316 315 317 317 318 317 317 318 315 314 313 315 315 315 315 316 316 318 320 322 326 330 331 333 329 328 327 324 327 326 326 325 324 325 326 327 329 330 328 325 324 322 322 324 324
328 328 326 326 326 326 325 323 322 324 323 323 322 322 323 324 324 323 323 323 322 322 321 322 321 320 319 318 318 316 315 316 317 316 318 316 317 314 313 311 314 314 314 314 314 315 316 317 319 321 324 327 329 327 318 326 329 328 326 324 323 324 324 326 326 328 329 328 328 324 322 322 323 325
326 326 325 324 325 326 325 325 324 324 325 325 323 322 322 322 322 322 322 325 324 323 322 322 321 320 319 319 319 318 317 316 315 316 316 315 314 313 313 312 312 313 313 314 314 315 315 317 317 319 319 319 319 320 324 316 321 328 324 320 321 324 326 327 328 328 326 325 329 325 322 320 322 325
325 327 326 325 326 326 326 326 326 326 326 326 325 324 322 322 322 323 326 327 325 323 323 322 321 320 320 320 319 318 317 315 316 316 315 314 314 314 312 313 314 313 313 314 314 315 317 316 318 319 319 318 319 317 320 328 319 319 329 324 322 324 325 324 325 324 325 326 326 324 323 322 321 322
327 327 326 326 325 325 326 327 327 326 326 326 326 326 325 324 324 326 329 328 326 324 323 322 321 320 320 320 319 319 318 317 317 316 316 315 313 313 313 312 312 313 312 313 315 315 315 316 317 320 318 318 317 317 318 325 327 324 315 325 324 323 325 321 318 318 321 325 325 326 326 323 321 321
326 326 325 325 326 327 327 328 327 327 328 328 326 326 326 326 325 325 326 327 327 326 323 322 322 323 323 321 319 318 317 317 316 316 316 316 315 313 313 313 313 315 312 311 313 314 314 316 316 318 319 318 317 319 319 321 323 327 317 311 320 327 323 321 318 319 318 318 320 324 325 325 322 317
326 327 327 326 326 328 328 329 328 330 329 329 328 328 328 325 325 325 325 326 327 328 325 322 323 322 323 321 321 320 319 319 317 317 317 316 314 314 313 313 313 313 313 310 311 313 314 314 316 315 316 320 322 324 326 327 328 329 327 320 309 318 323 327 320 319 320 321 322 322 321 325 323 324
329 330 330 330 329 328 327 328 329 330 330 330 331 330 329 329 328 326 325 325 326 327 325 324 323 324 324 323 323 321 319 318 318 317 317 316 315 314 312 312 312 311 311 311 310 311 313 316 317 322 321 323 326 324 323 322 320 320 320 321 314 312 312 317 327 325 322 324 321 319 321 322 323 325
328 328 330 332 332 332 331 331 331 330 330 330 330 329 331 332 331 329 327 326 329 330 328 323 324 323 323 324 323 321 320 319 318 317 317 316 315 314 313 313 311 312 312 310 311 312 315 317 318 320 324 326 324 321 317 318 318 317 320 320 322 315 312 312 312 313 323 325 323 318 319 320 322 322
329 329 329 330 330 331 331 331 331 331 330 330 330 330 330 330 330 330 329 327 329 327 326 325 323 322 323 324 324 323 321 320 320 318 318 318 316 314 313 313 313 313 313 314 313 314 314 316 317 316 319 319 320 318 316 318 320 319 318 317 319 321 321 313 312 311 311 310 312 317 322 325 319 316
331 330 330 332 331 332 333 333 332 332 331 331 330 330 330 329 328 328 329 328 327 327 327 325 324 322 322 323 324 325 322 321 320 319 318 318 318 316 314 314 313 315 313 314 313 313 313 314 316 315 315 316 318 317 317 319 319 318 318 319 320 320 319 322 323 316 314 312 309 312 312 313 314 316
333 332 332 331 330 330 331 334 334 333 333 331 330 328 328 329 328 327 328 328 327 326 326 326 325 324 323 322 322 322 323 323 321 320 318 318 317 316 314 313 312 313 313 313 313 313 313 312 313 314 314 316 318 318 318 318 317 319 319 319 318 320 320 320 320 320 319 317 312 309 312 312 313 313
Wind_Speed
8 8 9 7 6 6 5 4 4 4 4 5 5 5 6 5 6 6 6 5 7 7 6 6 6 7 8 8 6 7 9 9 12 10 10 10 9 12 15 14 13 14 15 15 15 15 15 15 16 16 10 10 12 21 23 24 25 26 26 26 25 26 23 22 25 24 23 23 25 26 25 24 23 24
8 8 9 8 7 7 5 4 3 3 4 4 5 5 5 5 6 6 7 7 5 6 6 6 7 6 8 9 6 7 9 9 11 10 10 9 10 15 14 8 9 11 13 15 15 15 15 15 15 15 15 10 9 12 23 24 26 25 25 26 27 28 28 26 25 23 23 24 24 23 23 22 24 24
8 9 10 9 7 7 6 5 4 4 4 4 4 4 5 5 5 6 7 7 6 7 7 7 7 7 8 10 8 7 9 9 11 10 10 9 13 15 10 7 6 7 11 13 14 14 14 15 16 15 15 15 9 9 11 24 25 26 24 24 23 24 23 23 21 22 24 24 24 24 22 22 23 23
7 9 10 9 8 7 6 5 4 3 4 4 4 5 4 4 4 6 6 7 9 7 8 8 8 7 7 10 10 10 9 9 12 11 10 10 12 9 9 9 2 3 9 13 13 13 14 14 15 16 16 15 13 9 11 14 25 24 25 26 25 26 24 22 20 22 22 24 24 24 23 25 24 23
8 8 9 9 8 7 6 6 5 5 5 5 4 3 3 4 5 6 7 7 8 7 8 8 8 9 9 9 9 10 10 10 10 11 10 10 9 9 9 9 3 5 8 12 13 13 13 12 14 15 15 15 15 12 6 10 15 24 25 25 24 20 19 20 23 22 24 23 24 25 25 24 24 24
7 8 8 9 9 7 7 6 6 6 5 5 5 5 5 5 5 5 7 7 8 9 8 8 8 7 8 9 8 9 10 11 10 11 10 9 9 9 9 8 6 7 7 10 11 12 11 12 11 14 14 15 14 12 5 9 12 18 23 21 20 21 22 25 24 25 24 24 24 26 26 26 25 24
7 8 8 9 8 6 7 7 5 5 5 4 5 6 6 7 6 7 6 7 8 9 9 9 9 7 8 8 9 9 9 10 10 10 11 10 9 9 9 8 7 3 6 10 10 10 11 10 9 10 13 14 14 11 8 2 7 10 19 18 16 18 18 22 22 23 22 23 24 26 25 26 25 25
6 7 8 9 9 8 6 5 6 5 4 6 5 6 5 5 7 6 6 7 7 8 9 9 8 8 8 8 8 8 9 10 10 9 10 10 10 10 9 8 7 6 7 9 9 8 9 7 7 8 11 13 13 11 7 7 11 8 13 19 17 18 18 24 21 22 20 21 22 24 25 25 24 24
6 7 7 8 8 7 7 6 6 7 8 5 6 6 6 6 6 6 6 7 7 8 8 7 7 7 7 7 7 9 10 9 9 9 10 9 10 10 9 8 6 7 6 8 6 5 7 4 5 7 9 12 11 11 9 7 2 2 4 13 15 17 20 20 20 19 23 21 22 24 24 23 24 24
6 7 7 8 8 7 7 6 6 6 7 6 5 5 6 6 6 7 7 8 8 8 7 8 8 7 8 8 6 8 9 9 10 10 10 10 10 11 10 8 6 6 6 7 6 5 6 6 7 6 6 11 11 10 10 7 5 4 8 15 17 17 18 21 22 20 22 24 23 23 23 24 23 23
5 7 6 7 8 7 6 6 6 7 6 6 6 5 6 6 8 8 7 8 9 9 8 7 7 8 6 7 8 8 8 9 9 10 10 9 10 10 10 9 9 8 8 7 2 5 8 7 5 7 5 10 10 11 10 9 4 5 10 15 18 19 20 21 21 20 20 23 23 23 22 22 22 23
4 5 5 8 7 6 5 6 6 6 7 6 5 5 6 7 7 8 8 8 7 8 8 8 8 8 9 9 9 9 9 9 9 9 10 11 11 11 11 10 9 9 9 9 7 5 7 6 4 6 3 8 10 11 12 9 11 6 10 13 18 21 22 20 19 19 18 19 20 21 21 21 22 23
3 4 4 7 7 5 5 6 6 7 7 7 7 7 7 7 8 8 7 7 7 8 8 8 7 8 8 8 9 10 10 10 10 10 10 10 10 10 11 10 8 8 10 9 8 6 7 7 7 7 7 6 10 9 10 11 14 12 7 13 16 19 22 23 22 19 21 21 21 20 21 21 22 22
2 3 5 5 4 2 4 5 6 6 8 8 8 7 7 7 7 8 7 7 7 7 7 8 8 8 8 10 10 9 10 11 10 10 10 11 11 11 12 11 9 8 11 11 10 7 5 6 6 6 7 6 8 8 9 10 12 12 11 10 15 17 18 17 19 21 22 22 21 20 20 22 22 21
3 3 3 3 2 4 2 3 4 5 6 6 7 8 8 7 7 7 7 7 7 7 8 8 8 8 9 9 9 9 10 10 11 10 10 10 10 10 11 12 10 7 11 10 10 8 6 5 6 6 6 7 6 8 10 13 15 15 10 9 14 17 18 18 18 19 21 22 22 22 21 21 21 20
4 3 3 2 1 4 5 4 3 3 5 6 7 8 7 6 7 5 6 7 7 7 8 8 9 9 10 10 9 10 10 10 11 10 10 10 10 10 10 10 11 10 10 10 10 8 6 5 3 5 6 6 7 5 8 12 16 16 12 7 12 18 20 21 19 19 19 20 20 21 22 22 22 23
2 3 2 2 3 3 3 3 4 4 4 5 5 6 5 3 3 5 3 5 6 7 7 8 9 9 10 10 9 10 11 11 11 11 9 10 10 9 10 10 11 10 10 9 9 9 7 7 4 4 6 6 6 5 8 11 15 17 15 4 10 13 15 17 18 19 19 19 20 19 19 21 22 23
2 2 3 2 2 3 2 2 3 3 3 5 6 7 6 5 4 4 4 5 7 7 6 7 9 9 9 9 9 10 10 10 10 10 10 11 11 10 11 12 12 10 7 9 10 8 7 8 6 4 5 6 6 5 8 11 11 14 15 10 4 12 14 15 18 19 19 18 19 19 19 20 22 22
2 2 3 2 2 1 2 2 3 4 4 5 5 6 6 7 4 3 4 6 7 6 6 8 9 9 8 8 9 9 8 9 9 9 11 11 10 10 11 9 8 5 6 10 9 8 8 6 8 4 4 6 6 6 6 10 10 9 11 11 4 9 13 14 15 17 18 19 19 21 22 21 21 21
2 3 3 3 3 2 2 3 3 4 5 5 5 5 8 7 7 4 5 3 3 2 4 6 6 6 8 8 8 8 8 9 9 9 8 8 7 8 9 8 6 7 6 9 10 9 8 7 7 7 3 4 6 6 6 6 9 7 9 10 10 4 8 12 17 18 19 19 20 22 23 21 22 24
3 4 3 4 4 3 5 5 5 5 6 6 5 6 7 6 8 6 2 15 12 9 10 10 9 10 7 7 9 10 11 8 10 9 8 7 8 7 8 9 8 7 7 8 11 9 8 7 8 8 6 4 5 6 7 7 5 6 7 9 9 7 6 11 11 15 18 19 19 20 22 23 21 20
3 4 5 6 6 6 5 7 8 6 6 6 6 6 6 6 7 6 7 7 2 7 10 12 13 11 9 6 9 9 6 8 9 7 9 9 7 7 7 8 9 8 5 7 11 9 9 9 8 8 8 5 1 5 7 8 6 5 6 8 8 7 6 2 9 9 14 17 18 17 17 18 20 15
4 4 7 11 9 8 5 4 5 6 8 7 7 6 6 7 7 7 8 8 8 9 10 8 6 5 3 6 7 7 7 8 8 6 7 7 7 7 8 8 9 8 5 8 11 9 10 10 8 9 8 8 5 5 6 7 7 7 7 8 8 8 5 4 5 8 10 13 15 16 16 16 15 7
4 4 4 8 14 11 11 10 7 7 8 8 8 7 7 7 7 7 8 8 9 9 9 9 7 5 5 5 6 6 5 6 4 6 6 7 7 7 8 8 8 8 6 6 10 7 8 9 9 9 8 8 7 7 5 6 7 8 8 8 8 8 4 4 4 1 8 10 12 14 14 14 12 6
5 3 4 5 8 13 12 11 11 10 9 10 9 8 8 7 7 9 9 9 10 8 8 8 8 6 6 6 5 5 4 5 5 5 6 6 6 7 8 8 8 9 6 6 8 7 7 10 9 10 9 8 6 7 6 4 6 7 8 7 8 9 7 5 4 2 2 7 8 10 10 12 15 8
6 5 4 5 4 11 11 11 10 11 10 10 8 10 11 10 9 9 9 9 8 6 7 8 8 9 7 6 5 5 5 5 5 6 6 6 7 7 7 7 7 8 9 7 10 8 8 8 9 10 9 9 8 7 6 5 6 5 5 7 7 8 8 7 5 4 3 2 4 6 7 9 10 5
6 6 5 5 4 11 10 11 10 10 10 9 10 12 11 11 10 9 9 9 8 7 7 7 7 7 7 7 6 6 5 6 5 6 6 6 7 7 7 7 6 6 6 8 7 7 7 7 9 9 10 10 9 8 7 6 5 6 5 6 6 6 6 7 7 6 4 2 4 8 9 9 10 5
7 7 7 4 3 10 11 11 10 10 10 9 11 9 10 10 9 9 9 8 7 6 5 6 7 8 8 7 6 6 6 7 7 7 6 6 7 7 7 7 8 6 6 7 6 6 6 7 8 8 9 10 9 7 7 4 3 5 5 4 6 7 6 6 7 8 7 4 4 4 5 6 5 5
9 8 6 2 5 7 9 10 10 9 12 15 15 15 13 12 9 9 8 8 7 6 6 7 6 8 7 7 6 5 7 7 8 6 6 6 7 6 7 7 7 7 5 6 6 5 6 7 8 9 9 8 8 6 6 6 5 5 6 6 5 7 8 8 7 6 6 6 6 5 5 6 6 4
13 12 11 10 9 9 10 9 9 10 9 13 15 14 13 9 10 9 8 7 7 7 6 7 7 7 6 6 7 6 6 7 7 6 6 6 6 6 6 6 6 7 5 5 7 5 6 7 7 8 8 8 8 8 6 6 5 4 5 5 3 3 7 7 7 6 6 6 5 6 7 5 5 6
11 13 12 11 12 11 11 11 11 12 11 10 9 9 10 9 8 8 7 7 7 6 6 6 8 6 4 5 6 6 6 6 5 5 6 6 6 6 6 6 6 6 6 5 6 5 5 6 6 7 7 7 7 7 7 5 3 4 4 4 5 5 6 6 6 6 6 6 6 7 7 7 7 5
8 8 9 10 9 9 10 10 9 9 8 9 8 7 7 7 7 7 9 9 7 7 7 6 6 6 4 7 6 6 6 6 6 6 5 5 6 6 6 5 5 4 4 4 5 3 4 4 5 6 6 6 7 8 4 2 4 3 3 4 4 5 5 6 6 6 5 6 7 8 8 7 7 6
8 9 9 10 10 9 9 9 9 8 8 7 8 8 8 7 6 6 7 7 7 7 6 6 6 7 6 5 6 6 7 6 5 5 4 5 5 5 5 6 5 4 5 5 4 4 3 5 6 6 5 5 4 6 6 4 1 2 3 3 4 4 5 6 6 4 4 6 6 7 9 8 8 7
8 9 10 10 10 10 10 10 10 10 9 8 8 7 7 7 7 7 6 7 7 6 7 6 7 6 6 5 6 7 8 5 5 4 4 5 4 5 5 5 4 4 5 5 5 5 5 6 6 6 4 3 1 6 5 3 5 4 3 3 4 5 5 5 5 4 4 6 5 5 7 7 6 6
8 9 10 11 10 10 10 10 10 9 9 9 8 8 7 7 7 7 7 7 6 7 7 7 6 6 6 6 5 6 7 6 5 5 5 5 5 5 5 5 5 5 6 5 5 5 5 6 6 6 4 4 3 4 7 4 2 5 2 5 5 5 5 5 5 4 4 5 5 7 7 7 7 5
9 10 11 11 11 11 11 11 10 10 9 9 8 7 8 8 7 7 7 7 7 7 7 7 7 7 6 6 6 6 6 7 6 5 5 5 5 5 5 5 5 5 5 5 5 5 5 6 6 6 5 3 4 5 3 6 6 4 4 5 5 5 4 5 4 4 4 5 3 5 7 7 6 7
10 11 12 12 12 11 11 11 10 10 10 9 9 8 8 8 8 7 7 7 8 7 7 7 7 7 7 6 6 6 6 7 5 5 5 5 5 5 5 5 4 4 5 4 5 5 5 6 5 6 4 3 2 1 4 4 5 6 5 4 5 4 4 4 4 5 5 5 6 6 6 6 5 6
11 11 12 12 11 11 11 11 10 10 10 10 9 9 9 9 8 8 6 6 8 7 7 8 8 8 7 7 6 6 6 6 5 5 5 5 5 5 4 4 5 4 4 4 4 4 4 5 5 5 4 4 2 1 2 5 4 5 10 7 3 3 2 3 4 5 5 5 6 6 6 7 6 5
11 12 12 12 11 10 11 11 11 11 10 10 10 9 9 8 8 7 8 8 8 8 7 8 8 8 8 7 7 7 7 6 6 5 5 5 5 5 5 5 4 3 3 4 4 3 3 4 4 5 5 4 4 4 4 2 4 3 7 9 6 3 4 3 4 4 5 6 6 7 8 9 9 7
11 12 12 12 12 11 11 11 11 10 10 10 10 9 9 9 9 9 8 8 8 8 8 8 8 8 8 8 7 7 7 8 7 6 6 5 5 5 5 5 5 4 4 5 5 2 3 2 3 5 6 5 4 4 4 3 3 3 4 9 12 7 5 5 3 4 4 3 4 5 5 5 5 5
10 11 11 11 11 11 11 11 11 10 10 10 9 9 9 9 9 9 8 8 8 8 8 8 8 8 9 8 8 8 8 7 7 6 6 6 5 5 5 5 5 6 5 5 4 4 2 2 3 2 5 4 2 2 2 4 4 2 3 4 8 10 9 8 6 4 3 0 1 2 3 4 5 5
12 12 11 11 11 11 11 11 10 10 10 10 9 9 9 8 9 10 9 9 9 9 9 9 8 9 9 9 8 8 8 8 7 7 6 6 5 5 7 7 7 6 5 5 4 3 2 2 3 4 5 4 4 4 2 2 1 2 2 2 3 6 9 9 12 11 7 5 3 3 4 5 5 5
11 11 11 11 11 11 11 11 10 10 10 10 9 9 9 9 8 9 9 9 9 10 10 9 9 9 9 9 9 8 9 9 8 8 7 7 6 6 5 6 6 6 6 5 4 3 4 3 3 5 4 4 5 5 3 5 3 2 1 2 2 2 4 7 10 13 14 13 10 5 4 3 2 4
10 10 10 9 9 9 9 10 9 9 9 9 9 9 9 9 10 10 9 10 10 10 10 10 10 9 9 9 9 9 9 9 8 8 8 7 7 6 6 6 6 6 6 6 5 4 4 4 3 4 5 5 4 5 5 5 6 5 4 3 3 3 3 4 5 7 10 12 12 10 9 9 10 11
10 10 9 8 8 9 8 6 6 6 7 8 8 10 9 9 9 10 10 11 11 10 10 10 10 9 9 9 9 10 9 9 9 8 8 8 8 7 7 6 6 6 6 6 6 5 4 4 5 4 5 6 5 5 6 6 6 6 5 5 6 5 5 5 4 4 5 5 8 9 9 11 13 12
Wind_Direction
21 10 14 5 7 4 352 12 354 5 349 5 359 1 350 350 331 340 336 356 341 360 2 345 3 7 348 329 339 347 333 12 352 337 337 334 334 347 331 320 328 336 346 344 347 349 349 351 349 347 332 299 268 225 223 220 215 213 210 209 205 210 205 199 205 203 199 196 199 199 196 195 195 200
20 10 14 8 11 7 356 17 349 7 343 356 6 5 357 350 342 343 331 328 335 337 352 346 337 351 349 324 339 352 328 7 342 334 331 329 336 330 312 308 321 332 341 342 341 344 344 347 349 346 343 323 284 259 222 223 221 217 216 215 207 202 202 200 205 199 199 193 196 195 195 191 194 198
18 10 14 12 14 8 359 5 14 13 357 357 358 16 354 359 347 340 329 316 334 332 337 333 334 340 354 329 332 338 332 345 339 332 329 329 332 318 316 318 314 329 343 338 339 338 341 341 347 346 342 336 301 272 254 223 224 221 218 217 216 207 203 207 199 201 195 192 193 193 192 191 195 197
19 10 11 10 12 4 356 2 8 10 14 344 2 17 347 2 7 346 334 323 323 331 331 330 322 352 352 332 335 333 332 335 337 335 326 331 326 323 326 318 286 9 346 339 334 336 334 337 343 346 341 336 324 272 249 240 220 217 215 218 211 206 196 208 200 205 192 191 193 194 191 194 197 197
15 16 10 8 12 359 360 5 2 9 23 343 3 16 341 1 22 359 341 331 330 328 336 326 332 338 348 331 342 336 335 336 336 330 328 330 331 327 322 321 339 61 352 333 330 329 327 329 340 347 343 339 329 313 244 267 246 215 213 214 210 200 195 199 205 199 194 191 191 192 190 189 194 196
12 13 10 12 8 2 1 7 11 0 359 6 347 8 348 360 8 12 345 339 326 329 330 330 328 332 349 323 344 341 335 336 331 331 329 334 335 328 324 323 329 67 345 328 319 318 315 325 337 349 346 343 338 319 287 228 235 221 216 213 202 197 202 201 202 202 193 189 193 195 191 188 192 194
13 12 9 11 10 4 1 7 5 4 359 356 357 358 357 355 359 7 354 339 333 330 329 326 327 337 337 333 340 337 339 332 330 329 334 335 329 331 330 323 315 24 335 313 311 311 314 320 345 353 350 342 342 334 298 154 284 235 216 201 204 204 199 197 200 196 191 190 195 198 195 190 189 192
8 12 5 7 10 3 352 11 356 11 30 340 18 354 9 347 19 355 351 350 334 337 331 339 333 340 331 342 332 338 336 336 339 338 334 329 333 339 335 322 314 327 295 285 284 295 304 328 354 359 352 350 349 344 315 225 222 221 204 193 187 201 199 200 191 191 192 190 194 196 197 193 190 190
6 11 8 9 5 5 350 13 6 359 4 11 14 358 1 0 359 353 352 340 341 338 340 336 345 336 335 339 337 352 346 341 339 345 340 330 345 340 336 321 315 298 273 259 243 285 295 345 340 0 358 359 358 355 340 293 234 244 219 216 204 189 201 196 194 188 188 193 195 198 196 194 192 190
8 5 7 15 2 5 357 3 355 358 5 3 19 2 1 347 347 346 358 339 349 340 339 340 350 338 350 335 356 1 345 341 345 347 342 345 354 343 338 333 331 333 337 334 323 322 316 359 334 14 344 6 5 1 352 336 287 213 179 214 202 193 199 197 195 194 188 191 195 197 195 193 191 190
15 2 4 16 8 11 2 358 356 347 12 353 7 15 353 346 347 350 348 345 350 340 341 342 352 337 353 329 354 353 351 349 351 345 344 344 351 346 340 342 336 337 333 329 70 327 312 308 316 338 331 22 11 14 355 353 323 243 186 188 196 192 199 201 197 197 192 190 194 195 194 190 189 190
10 356 5 20 16 17 10 360 350 351 360 349 8 18 356 355 345 346 345 349 353 343 346 344 354 339 351 358 354 349 351 357 350 352 345 341 347 344 338 342 336 338 334 337 342 341 325 335 342 330 324 34 13 18 357 2 349 310 218 200 198 193 196 197 198 196 196 196 196 194 192 190 189 190
357 353 3 36 23 27 11 15 5 5 5 349 1 10 1 353 348 347 346 340 355 341 348 344 349 348 354 357 356 347 349 354 352 345 345 336 346 343 337 336 338 343 344 338 343 342 354 338 352 352 356 14 7 7 3 352 338 325 278 209 200 201 196 195 192 192 198 201 198 193 189 188 190 191
339 33 357 73 65 359 16 27 17 20 11 11 2 356 354 348 346 339 340 336 350 351 343 351 346 347 349 348 354 345 345 346 344 343 345 338 347 341 340 334 340 357 349 343 340 332 354 344 347 356 359 356 12 2 2 350 336 323 300 228 201 201 203 202 196 189 194 199 196 195 191 189 189 190
343 12 6 26 76 23 18 63 48 17 16 3 355 353 345 347 346 343 343 346 347 349 345 350 350 344 349 346 343 342 345 341 338 341 337 337 340 340 340 334 327 358 346 338 331 330 343 345 351 348 349 353 12 12 2 344 346 337 307 231 198 197 200 199 199 194 191 192 192 194 192 187 187 190
358 4 347 14 52 65 20 341 48 24 32 4 3 357 351 356 6 4 348 344 343 348 349 343 349 342 346 340 339 346 343 343 331 337 333 335 336 332 330 324 324 330 330 329 328 325 304 336 333 342 346 347 7 48 9 356 359 358 339 238 199 203 200 197 194 196 194 193 190 193 195 190 187 188
359 343 322 4 344 82 210 275 25 7 7 10 359 3 357 7 18 338 333 336 339 343 343 341 337 342 337 329 339 340 338 333 327 330 332 336 326 326 318 322 317 322 324 323 335 330 333 326 323 355 346 346 353 25 25 9 4 10 360 299 202 209 207 199 194 191 194 193 195 193 193 193 192 191
353 344 305 316 355 40 19 26 351 2 0 357 8 5 2 18 1 358 360 348 343 350 334 333 335 339 333 332 334 332 335 333 331 330 328 327 322 320 319 311 306 298 315 344 338 325 334 334 323 9 345 340 348 20 53 24 16 8 12 359 209 199 202 204 199 196 192 189 189 187 194 195 195 192
292 274 282 310 300 108 285 46 351 319 342 343 355 354 351 353 17 27 2 357 344 335 333 336 341 340 343 345 331 335 333 333 328 326 319 316 311 311 304 296 297 308 351 351 347 333 329 332 331 356 345 337 348 355 81 44 29 13 8 10 339 204 207 200 202 197 195 190 187 188 195 192 190 190
249 247 268 275 256 252 262 189 225 282 307 310 327 350 344 1 340 16 111 182 209 267 309 317 330 341 338 325 323 320 321 327 328 320 318 309 313 320 314 317 335 339 338 358 353 333 323 345 340 336 356 340 334 351 9 75 43 23 14 12 5 307 211 208 198 198 196 192 192 192 194 190 190 189
236 243 235 256 279 249 250 172 183 239 275 294 311 332 342 353 326 9 17 178 194 212 227 232 238 236 241 271 285 283 277 289 314 325 323 334 336 322 323 321 330 343 348 352 354 333 317 349 344 334 346 332 330 341 1 8 63 35 44 18 14 9 205 197 217 199 195 193 194 194 191 192 191 189
267 242 222 245 260 270 286 148 185 210 265 280 296 307 335 329 327 357 3 350 4 213 240 225 225 233 220 244 274 274 269 293 310 333 329 334 334 328 316 320 323 324 347 4 355 335 331 342 344 345 339 305 209 348 0 8 17 27 34 33 20 16 14 224 187 210 198 190 194 194 189 190 180 184
259 242 215 220 236 256 290 119 196 218 257 276 287 298 300 315 320 357 348 336 327 334 331 334 315 295 315 330 314 314 307 305 305 322 322 327 334 329 323 313 314 309 347 11 0 344 336 333 341 352 341 334 340 353 359 6 15 13 6 13 20 24 32 21 190 185 193 191 189 189 189 189 179 158
250 256 258 215 214 229 246 260 251 238 243 266 277 286 289 300 319 343 322 317 319 321 322 313 312 331 328 320 310 309 324 312 316 321 326 334 334 329 320 309 307 311 330 26 358 349 332 326 328 349 341 330 334 330 353 360 9 13 10 13 13 4 49 80 46 244 189 187 185 188 187 182 175 171
273 270 270 313 178 203 224 234 240 244 241 246 265 269 273 283 334 322 298 303 309 308 304 300 322 346 335 314 302 315 322 317 338 337 329 331 338 326 324 320 307 294 315 24 3 346 338 325 328 337 334 331 331 330 335 339 4 19 19 24 15 13 13 49 106 102 205 174 172 180 190 183 184 187
279 282 297 293 189 186 210 226 233 241 244 242 248 258 265 287 294 284 291 287 297 314 317 330 332 330 338 326 322 320 315 319 351 334 326 333 326 321 322 324 313 303 307 341 350 343 336 325 336 328 330 330 334 329 325 350 2 32 49 31 34 19 17 24 48 89 109 134 131 159 165 161 180 216
282 279 279 281 212 182 210 221 229 236 241 245 247 252 258 258 263 268 274 286 297 304 318 319 317 317 338 342 327 319 326 325 343 325 326 317 313 311 317 321 309 299 309 312 327 333 330 324 321 327 329 326 324 328 326 339 350 354 52 42 30 39 31 34 35 48 60 79 85 97 108 137 166 113
273 274 274 290 175 187 211 224 232 238 234 247 260 252 244 245 249 267 272 274 282 293 297 300 312 327 339 346 330 327 327 323 327 309 304 306 315 311 311 314 309 310 314 308 314 321 324 322 319 328 323 320 322 328 327 310 1 341 9 84 38 35 39 43 47 39 42 79 121 127 124 119 139 130
269 280 298 274 204 213 222 233 242 243 239 240 245 249 250 250 258 256 264 277 287 288 286 284 322 322 334 343 339 344 325 313 296 293 307 318 308 309 308 306 299 288 290 295 299 318 330 324 321 322 318 317 319 323 296 341 356 347 353 338 44 26 36 47 41 45 41 26 43 84 114 134 143 161
286 294 284 271 259 246 240 241 242 247 248 224 223 230 233 244 248 252 257 266 267 278 283 301 306 309 328 336 343 327 309 312 311 310 308 312 308 324 319 316 307 292 247 260 293 308 320 321 317 315 315 318 329 321 348 358 330 357 7 6 23 75 45 51 53 51 46 53 49 52 58 83 130 153
252 253 248 252 248 253 254 247 253 262 266 265 242 231 226 233 244 249 246 251 257 263 276 276 295 320 327 321 305 304 319 309 311 310 313 307 323 327 325 317 294 295 312 314 295 308 318 310 307 310 311 320 328 333 347 338 330 10 18 22 28 34 38 55 59 68 75 79 69 58 62 60 64 70
265 268 264 244 242 243 242 242 241 234 243 251 253 255 264 258 248 254 262 266 265 265 265 277 285 284 285 281 311 317 316 325 323 311 310 320 316 319 320 300 309 313 312 306 300 312 289 294 307 305 304 314 325 334 350 308 304 21 29 25 44 52 38 42 50 62 72 69 64 65 61 63 65 60
298 288 271 271 265 261 260 262 263 265 269 264 255 253 261 268 259 247 239 242 239 240 247 250 252 258 258 269 300 310 307 327 314 297 301 305 306 310 306 303 320 336 330 323 321 314 322 322 299 291 291 293 322 340 327 315 308 34 39 41 55 58 51 47 43 42 92 87 75 74 72 61 55 58
284 272 274 272 274 272 272 272 270 273 276 279 278 274 254 253 262 268 259 252 252 243 241 245 251 260 259 264 279 307 317 338 310 292 267 274 283 293 295 310 320 339 317 316 326 328 331 310 303 281 251 250 75 28 359 352 317 344 46 48 52 66 63 65 58 50 55 80 92 90 76 70 61 53
252 261 267 268 268 268 271 276 278 275 275 278 280 277 271 260 250 244 252 259 258 248 244 246 251 257 261 264 267 281 295 318 313 304 292 279 265 273 301 303 320 325 322 318 328 328 318 312 308 313 253 210 194 107 51 9 339 330 40 64 40 50 63 58 62 65 101 107 93 83 79 76 79 78
262 266 271 273 274 276 278 277 278 276 272 271 272 276 273 272 271 259 253 245 244 249 247 247 251 252 251 251 252 265 299 306 293 290 290 286 288 291 289 302 308 311 315 312 328 323 323 315 314 322 316 243 232 222 111 43 33 341 12 67 45 48 54 70 70 68 72 81 95 96 86 85 79 81
258 264 267 270 273 273 274 275 277 278 278 279 274 272 271 274 271 260 257 238 234 241 248 250 249 246 243 245 249 250 255 277 297 283 286 287 280 282 284 282 295 296 293 315 318 316 315 315 321 337 333 324 283 16 68 127 55 22 11 34 75 40 54 68 78 83 79 83 81 83 94 98 90 52
257 262 265 269 271 272 272 273 273 269 270 268 267 266 269 270 271 269 255 232 224 242 239 235 241 243 245 244 244 244 246 270 283 274 275 280 275 269 282 301 296 299 309 302 303 314 314 310 332 352 344 3 357 352 111 113 113 58 34 356 37 62 40 68 75 79 75 71 74 82 94 93 90 92
246 258 263 267 267 268 269 270 271 273 273 273 270 268 263 261 266 259 238 237 231 239 249 239 237 237 239 240 240 244 248 249 251 266 274 273 280 275 267 268 281 285 303 297 297 300 315 307 5 354 346 17 18 33 353 55 78 98 55 37 359 339 76 68 92 90 90 86 86 81 76 85 88 103
233 244 255 259 264 265 266 267 269 268 267 265 265 265 265 258 260 260 253 244 238 228 244 243 239 237 236 237 240 241 240 241 246 253 257 266 271 274 269 269 273 291 282 278 278 299 294 336 26 357 339 354 39 21 25 60 92 69 101 56 32 23 10 346 66 85 81 90 131 126 117 148 144 171
260 251 250 251 258 262 263 266 265 264 260 259 257 255 253 258 255 253 257 251 245 233 226 238 239 235 236 234 233 238 246 243 242 242 242 248 250 256 281 302 276 271 269 274 278 268 279 30 20 258 257 283 145 160 226 167 124 77 53 75 70 46 30 25 26 21 81 75 149 109 125 120 121 143
267 267 265 262 262 261 263 265 264 264 262 258 255 249 239 233 240 243 245 235 232 229 234 241 236 233 234 233 234 233 238 245 243 238 239 251 256 241 208 224 257 256 249 255 259 285 6 344 269 258 237 230 229 222 136 69 107 114 68 40 87 92 63 46 61 60 45 4 342 116 134 145 136 120
262 264 263 264 264 264 262 263 263 260 262 260 255 250 248 243 237 226 229 231 221 225 230 235 240 237 231 235 233 232 236 233 236 239 239 234 236 247 252 239 235 250 254 258 271 273 271 249 247 248 259 249 230 230 190 156 166 126 146 145 102 104 104 94 81 81 66 50 36 33 357 344 301 119
261 262 264 263 264 264 260 256 261 277 276 267 252 242 239 246 243 238 232 232 230 226 228 231 236 237 233 232 236 232 229 236 237 232 232 234 235 238 245 249 244 244 254 260 256 251 242 242 238 249 258 251 227 227 195 165 164 172 169 154 160 173 160 147 138 119 89 60 33 23 27 40 60 62
259 260 262 260 261 264 261 269 274 258 253 261 264 261 247 240 243 244 240 238 241 239 234 231 238 234 233 232 232 233 228 225 234 240 235 231 229 227 231 238 244 240 242 250 258 252 245 246 237 237 240 258 228 217 217 213 182 162 162 174 185 187 175 177 177 154 108 99 42 20 30 45 48 62